Weather History for LECO - January, 2013

Change the Weather History Date:

Thursday, January 3, 2013

  Actual Average Record
Temperature  
Mean Temperature 52 °F -  
Max Temperature 66 °F 54 °F 66 °F (2013)
Min Temperature 37 °F 42 °F 35 °F (2005)
Degree Days  
Heating Degree Days 14    
Growing Degree Days 2 (Base 50)    
Moisture  
Dew Point 45 °F    
Average Humidity 88    
Maximum Humidity 100    
Minimum Humidity 56    
Precipitation  
Precipitation 0.00 in - - ()
Sea Level Pressure  
Sea Level Pressure 30.56 in    
Wind  
Wind Speed 2 mph ()    
Max Wind Speed 7 mph    
Max Gust Speed -    
Visibility 5.1 miles    
Events Fog    
Averages and records for this station are not official NWS values.
T = Trace of Precipitation, MM = Missing Value Source: Averaged Metar Reports

Daily Weather History Graph

Daily Weather History Graph

Search for Another Location

Airport or City:

Trip Planner

Search our weather history database for the weather conditions in past years. The results will help you decide how hot, cold, wet, or windy it might be!

Date:

Astronomy

Jan. 03, 2013 Rise Set
Actual Time 9:05 AM CET 6:10 PM CET
Civil Twilight 8:33 AM CET 6:42 PM CET
Nautical Twilight 7:57 AM CET 7:18 PM CET
Astronomical Twilight 7:23 AM CET 7:53 PM CET
Moon No Moon Rise 11:59 AM CET (1/3)
Length of Visible Light 10h 09m
Length of Day
9h 04m
Waning Gibbous, 68% of the Moon is Illuminated
Jan 3
Waning Gibbous
Jan 5
Last Quarter
Jan 11
New
Jan 19
First Quarter
Jan 27
Full

Hourly Weather History & Observations

Time (CET) Temp. Windchill Dew Point Humidity Pressure Visibility Wind Dir Wind Speed Gust Speed Precip Events Conditions
12:00 AM 44.6 °F - 44.6 °F 100% 30.54 in - Calm Calm - N/A   Clear
12:30 AM 42.8 °F - 42.8 °F 100% 30.54 in - Variable 2.3 mph - N/A   Clear
1:00 AM 42.8 °F - 42.8 °F 100% 30.54 in - Variable 2.3 mph - N/A   Clear
5:30 AM 39.2 °F - 39.2 °F 100% 30.51 in 6.2 mi Variable 2.3 mph - N/A   Unknown
6:00 AM 39.2 °F - 39.2 °F 100% 30.51 in 3.1 mi Variable 2.3 mph - N/A   Unknown
6:30 AM 39.2 °F - 39.2 °F 100% 30.51 in 6.2 mi Calm Calm - N/A Fog Unknown
7:00 AM 39.2 °F - 39.2 °F 100% 30.51 in 6.2 mi Variable 2.3 mph - N/A Fog Unknown
7:30 AM 37.4 °F 34.9 °F 37.4 °F 100% 30.51 in 6.2 mi South 3.5 mph - N/A Fog Shallow Fog
7:36 AM 37.4 °F 34.9 °F 37.4 °F 100% 30.51 in 0.6 mi South 3.5 mph - N/A Fog Patches of Fog
8:00 AM 37.4 °F 34.9 °F 37.4 °F 100% 30.54 in 6.2 mi South 3.5 mph - N/A Fog Patches of Fog
8:30 AM 39.2 °F - 39.2 °F 100% 30.54 in 6.2 mi Variable 2.3 mph - N/A   Partly Cloudy
9:00 AM 37.4 °F 33.8 °F 37.4 °F 100% 30.54 in 6.2 mi South 4.6 mph - N/A Fog Unknown
9:30 AM 37.4 °F - 37.4 °F 100% 30.54 in 6.2 mi Variable 2.3 mph - N/A Fog Unknown
10:00 AM 39.2 °F - 39.2 °F 100% 30.54 in 6.2 mi Variable 1.2 mph - N/A Fog Unknown
10:30 AM 41.0 °F 39.0 °F 41.0 °F 100% 30.54 in 6.2 mi SSW 3.5 mph - N/A   Partly Cloudy
11:00 AM 44.6 °F 40.7 °F 44.6 °F 100% 30.57 in 6.2 mi South 6.9 mph - N/A   Partly Cloudy
11:30 AM 48.2 °F - 48.2 °F 100% 30.57 in - South 3.5 mph - N/A   Clear
12:00 PM 53.6 °F - 46.4 °F 77% 30.57 in - South 4.6 mph - N/A   Clear
12:30 PM 53.6 °F - 48.2 °F 82% 30.57 in - South 6.9 mph - N/A   Clear
1:00 PM 59.0 °F - 48.2 °F 67% 30.57 in - SE 5.8 mph - N/A   Clear
2:00 PM 60.8 °F - 48.2 °F 63% 30.54 in - Calm Calm - N/A   Clear
2:30 PM 62.6 °F - 50.0 °F 63% 30.54 in - Variable 2.3 mph - N/A   Clear
3:00 PM 64.4 °F - 48.2 °F 56% 30.54 in - Calm Calm - N/A   Clear
3:30 PM 62.6 °F - 48.2 °F 59% 30.54 in - Variable 1.2 mph - N/A   Clear
4:00 PM 62.6 °F - 48.2 °F 59% 30.54 in - Calm Calm - N/A   Clear
4:30 PM 66.2 °F - 51.8 °F 60% 30.54 in - Variable 1.2 mph - N/A   Clear
5:00 PM 64.4 °F - 50.0 °F 59% 30.54 in - Calm Calm - N/A   Clear
5:30 PM 59.0 °F - 50.0 °F 72% 30.57 in - Variable 2.3 mph - N/A   Clear
6:00 PM 59.0 °F - 50.0 °F 72% 30.57 in - Calm Calm - N/A   Clear
6:30 PM 57.2 °F - 51.8 °F 82% 30.57 in - Variable 1.2 mph - N/A   Clear
7:00 PM 55.4 °F - 50.0 °F 82% 30.57 in - Calm Calm - N/A   Clear
7:30 PM 53.6 °F - 50.0 °F 88% 30.57 in - Calm Calm - N/A   Clear
8:00 PM 51.8 °F - 50.0 °F 94% 30.60 in - Variable 2.3 mph - N/A   Clear
8:30 PM 51.8 °F - 50.0 °F 94% 30.60 in - Variable 2.3 mph - N/A   Clear
9:00 PM 50.0 °F - 48.2 °F 94% 30.60 in - Variable 2.3 mph - N/A   Clear
9:30 PM 50.0 °F - 48.2 °F 94% 30.60 in - South 4.6 mph - N/A   Clear
10:00 PM 48.2 °F - 48.2 °F 100% 30.60 in - South 3.5 mph - N/A   Clear
10:30 PM 48.2 °F - 46.4 °F 93% 30.63 in 5.6 mi South 4.6 mph - N/A Fog Fog
11:00 PM 46.4 °F 43.5 °F 46.4 °F 100% 30.63 in 3.1 mi South 5.8 mph - N/A Fog Fog
11:30 PM 46.4 °F 45.2 °F 46.4 °F 100% 30.63 in 0.3 mi South 3.5 mph - N/A Fog Fog